Date String (YYYY-MM-DD hh:mm:ss) UTC,Instrument flags,Ambient pressure (hPa),Sample flow (lpm),Bypass flow (lpm),Sample temperature (°C),Ambient temperature (°C),ASC tube jacket temperature (°C),LED temperature (°C),Box temperature (°C),Sample RH (%),Span deviation,Mass concentration (μg/m³),Mass concentration (μg/m³),Mass concentration (μg/m³)
DateTimeUTC,F1_M11,P_M11,Q1_M11,Q2_M11,T1_M11,T2_M11,T3_M11,T4_M11,T5_M11,U1_M11,ZSPAN_M11,X0_M11,X2_M11,X1_M11
2022-02-23 13:00:00,,0827.7,5.00,0.00,22.2,21.3,00.0,31.2,23.7,03.1,0000.0,0007.57,0003.77,0003.31
2022-02-23 13:01:00,,0827.7,5.00,0.00,22.1,20.9,00.0,31.2,23.6,03.1,0000.0,0007.51,0003.77,0003.32
2022-02-23 13:02:00,,0827.7,5.00,0.00,22.0,21.2,00.0,31.1,23.5,03.1,0000.0,0007.41,0003.76,0003.32
2022-02-23 13:03:00,,0827.8,5.01,0.00,22.2,22.1,00.0,31.2,23.8,03.1,0000.0,0007.41,0003.78,0003.32
2022-02-23 13:04:00,,0827.9,5.00,0.00,22.3,22.8,00.0,31.2,24.1,03.1,0000.0,0006.84,0003.76,0003.33
2022-02-23 13:05:00,,0827.9,5.00,0.00,22.4,23.3,00.0,31.2,24.3,03.1,0000.0,0006.84,0003.75,0003.33
2022-02-23 13:06:00,,0827.9,5.00,0.00,22.5,23.0,00.0,31.3,24.3,03.1,0000.0,0006.70,0003.73,0003.33
2022-02-23 13:07:00,,0827.8,4.99,0.00,22.4,22.3,00.0,31.3,24.1,03.1,0000.0,0006.71,0003.74,0003.33
2022-02-23 13:08:00,,0827.9,5.00,0.00,22.3,21.7,00.0,31.2,24.0,03.1,0000.0,0005.95,0003.73,0003.33
2022-02-23 13:09:00,,0827.9,5.00,0.00,22.2,21.3,00.0,31.2,23.8,03.1,0000.0,0005.74,0003.70,0003.33
2022-02-23 13:10:00,,0827.9,5.00,0.00,22.1,20.9,00.0,31.2,23.6,03.1,0000.0,0005.79,0003.70,0003.32
2022-02-23 13:11:00,,0828.0,5.01,0.00,22.1,21.2,00.0,31.2,23.6,03.1,0000.0,0005.82,0003.70,0003.30
2022-02-23 13:12:00,,0828.0,5.00,0.00,22.2,22.1,00.0,31.2,23.9,03.1,0000.0,0005.73,0003.67,0003.29
2022-02-23 13:13:00,,0828.2,5.00,0.00,22.3,22.9,00.0,31.3,24.2,03.1,0000.0,0005.54,0003.65,0003.29
2022-02-23 13:14:00,,0828.2,5.00,0.00,22.4,23.2,00.0,31.3,24.3,03.1,0000.0,0005.46,0003.63,0003.27
2022-02-23 13:15:00,,0828.1,4.99,0.00,22.5,22.7,00.0,31.3,24.3,03.0,0000.0,0005.55,0003.62,0003.25
2022-02-23 13:16:00,,0827.9,5.01,0.00,22.4,22.2,00.0,31.3,24.1,03.1,0000.0,0005.43,0003.60,0003.23
2022-02-23 13:17:00,,0827.9,4.99,0.00,22.3,21.7,00.0,31.3,23.9,03.1,0000.0,0005.30,0003.58,0003.22
2022-02-23 13:18:00,,0827.8,5.00,0.00,22.2,21.4,00.0,31.2,23.8,03.1,0000.0,0005.20,0003.57,0003.21
2022-02-23 13:19:00,,0827.8,5.01,0.00,22.2,21.2,00.0,31.2,23.7,03.1,0000.0,0005.38,0003.58,0003.20
2022-02-23 13:20:00,,0827.9,4.99,0.00,22.1,21.3,00.0,31.2,23.7,03.1,0000.0,0005.46,0003.58,0003.19
2022-02-23 13:21:00,,0828.0,4.99,0.00,22.2,22.1,00.0,31.2,23.9,03.1,0000.0,0005.31,0003.55,0003.18
2022-02-23 13:22:00,,0828.0,5.01,0.00,22.3,22.8,00.0,31.3,24.1,03.0,0000.0,0005.12,0003.50,0003.15
2022-02-23 13:23:00,,0828.0,5.00,0.00,22.5,23.2,00.0,31.3,24.3,03.0,0000.0,0004.94,0003.46,0003.14
2022-02-23 13:24:00,,0828.0,4.99,0.00,22.5,22.8,00.0,31.3,24.3,03.0,0000.0,0004.91,0003.44,0003.13
2022-02-23 13:25:00,,0827.9,4.99,0.00,22.4,22.3,00.0,31.3,24.1,03.0,0000.0,0004.97,0003.45,0003.13
2022-02-23 13:26:00,,0827.9,5.01,0.00,22.4,21.8,00.0,31.3,24.0,03.0,0000.0,0004.88,0003.43,0003.13
2022-02-23 13:27:00,,0827.9,4.99,0.00,22.3,21.4,00.0,31.3,23.8,03.0,0000.0,0004.95,0003.42,0003.13
2022-02-23 13:28:00,,0827.9,5.00,0.00,22.2,21.1,00.0,31.2,23.7,03.1,0000.0,0005.12,0003.45,0003.13
2022-02-23 13:29:00,,0827.9,4.99,0.00,22.1,21.3,00.0,31.2,23.7,03.1,0000.0,0005.41,0003.45,0003.12
2022-02-23 13:30:00,,0827.9,5.01,0.00,22.2,22.0,00.0,31.2,23.9,03.0,0000.0,0005.93,0003.43,0003.11
2022-02-23 13:31:00,,0827.8,5.00,0.00,22.3,22.7,00.0,31.3,24.1,03.0,0000.0,0005.84,0003.42,0003.11
2022-02-23 13:32:00,,0827.9,5.01,0.00,22.5,23.1,00.0,31.3,24.3,03.0,0000.0,0005.89,0003.45,0003.13
2022-02-23 13:33:00,,0827.8,4.99,0.00,22.5,22.7,00.0,31.3,24.3,03.0,0000.0,0005.88,0003.46,0003.13
2022-02-23 13:34:00,,0827.9,5.01,0.00,22.4,22.2,00.0,31.3,24.1,03.0,0000.0,0005.97,0003.48,0003.13
2022-02-23 13:35:00,,0827.8,4.99,0.00,22.3,21.7,00.0,31.3,23.9,03.0,0000.0,0006.04,0003.48,0003.13
2022-02-23 13:36:00,,0827.8,5.02,0.00,22.2,21.3,00.0,31.3,23.8,03.0,0000.0,0006.21,0003.47,0003.12
2022-02-23 13:37:00,,0827.7,4.99,0.00,22.2,21.0,00.0,31.2,23.7,03.1,0000.0,0006.37,0003.49,0003.12
2022-02-23 13:38:00,,0827.7,5.00,0.00,22.2,21.6,00.0,31.2,23.7,03.1,0000.0,0006.32,0003.51,0003.12
2022-02-23 13:39:00,,0827.7,5.01,0.00,22.3,22.3,00.0,31.3,24.0,03.0,0000.0,0006.38,0003.53,0003.13
2022-02-23 13:40:00,,0827.7,5.01,0.00,22.4,23.0,00.0,31.3,24.2,03.0,0000.0,0006.19,0003.55,0003.13
2022-02-23 13:41:00,,0827.7,5.00,0.00,22.5,23.0,00.0,31.3,24.3,03.0,0000.0,0005.53,0003.54,0003.13
2022-02-23 13:42:00,,0827.7,4.99,0.00,22.5,22.5,00.0,31.3,24.2,03.0,0000.0,0005.61,0003.55,0003.12
2022-02-23 13:43:00,,0827.7,5.00,0.00,22.4,21.9,00.0,31.3,24.0,03.0,0000.0,0006.07,0003.54,0003.10
2022-02-23 13:44:00,,0827.7,5.00,0.00,22.3,21.5,00.0,31.3,23.9,03.0,0000.0,0006.50,0003.53,0003.08
2022-02-23 13:45:00,,0827.7,5.00,0.00,22.2,21.1,00.0,31.2,23.7,03.0,0000.0,0006.39,0003.50,0003.08
2022-02-23 13:46:00,,0827.7,5.00,0.00,22.1,21.2,00.0,31.2,23.6,03.1,0000.0,0006.43,0003.51,0003.08
2022-02-23 13:47:00,,0827.7,4.99,0.00,22.2,22.0,00.0,31.2,23.9,03.0,0000.0,0006.25,0003.50,0003.07
2022-02-23 13:48:00,,0827.8,5.02,0.00,22.3,22.7,00.0,31.3,24.1,03.0,0000.0,0005.96,0003.45,0003.04
2022-02-23 13:49:00,,0827.7,4.99,0.00,22.5,23.1,00.0,31.3,24.3,03.0,0000.0,0005.90,0003.42,0003.02
2022-02-23 13:50:00,,0827.7,5.00,0.00,22.5,22.8,00.0,31.3,24.3,03.0,0000.0,0005.87,0003.39,0003.00
2022-02-23 13:51:00,,0827.7,5.01,0.00,22.4,22.3,00.0,31.3,24.1,03.0,0000.0,0005.86,0003.37,0003.00
2022-02-23 13:52:00,,0827.8,5.00,0.00,22.3,21.7,00.0,31.3,24.0,03.0,0000.0,0005.87,0003.37,0003.00
2022-02-23 13:53:00,,0827.8,4.99,0.00,22.2,21.2,00.0,31.3,23.8,03.0,0000.0,0005.80,0003.36,0002.99
2022-02-23 13:54:00,,0827.7,4.99,0.00,22.2,21.3,00.0,31.2,23.7,03.0,0000.0,0005.27,0003.33,0003.00
2022-02-23 13:55:00,,0827.7,5.00,0.00,22.3,22.0,00.0,31.3,23.9,03.0,0000.0,0004.72,0003.31,0002.98
2022-02-23 13:56:00,,0827.7,5.01,0.00,22.4,22.8,00.0,31.3,24.1,03.0,0000.0,0004.73,0003.32,0002.96
2022-02-23 13:57:00,,0827.7,5.00,0.00,22.5,23.1,00.0,31.3,24.3,03.0,0000.0,0004.69,0003.31,0002.94
2022-02-23 13:58:00,,0827.7,4.99,0.00,22.5,22.6,00.0,31.3,24.2,03.0,0000.0,0004.58,0003.29,0002.92
2022-02-23 13:59:00,,0827.7,5.00,0.00,22.4,22.1,00.0,31.3,24.1,03.0,0000.0,0004.78,0003.31,0002.92
